Retour au catalogue

YZ-1 R/B

ActifMEO
NORAD 43650·ROCKET BODY·🇨🇳 China

Lancé Oct 15, 2018 depuis Xichang Satellite Launch Center

Loading…

Prochains Passages (prochaines 24 heures)

TLE

FraisSource: Space-Track

Époque: Sep 14, 2026, 06:39 UTC

1 43650U 18078D   26257.27718904 -.00000060  00000-0  00000-0 0  9999
2 43650  53.9424 306.0360 0106592  66.1351 295.0435  1.77586592 51341

Suivez YZ-1 R/B en temps réel avec AllMySat

Download on the App Store